LEMUR-2-AUSTINTACIOUS (42068 NORAD) Tracking and Keplerian Element Data

This shows tracking and keplerian element data for the satellite.

Feedback or suggestion? Click here.




ElementValue
Catalog42068
NameLEMUR-2-AUSTINTACIOUS
Epoch Orbit9050
Epoch Day276.57796935
Epoch Year2018
RAAN125.1133
Inclination51.6138
Eccentricity0.0009436
Argument of Perigee273.2644
Mean Anonmoly116.3545
Mean Motion16.3910212
Decay Rate0.05750731
L11 42068U 98067LD 18276.57796935 .05750731 12379-4 45595-3 0 9990
L22 42068 51.6138 125.1133 0009436 273.2644 116.3545 16.39102120 90506



Live tracking and technical data element details for LEMUR-2-AUSTINTACIOUS (NORAD 42068). LEMUR-2-AUSTINTACIOUS can be tracked NOW for your location showing map with azimuth and elevation plus other details from your city location.







IsCatalogInMostPopularTable: catalog: 42068, numindb: 657
Update: records affected: 1



GetName: 42068 LEMUR-2-AUSTINTACIOUS

Hit Count: updated at: Fri, 14 Jun 2024 18:59:18 GMT